Track QB50P1 (EO-79) now! 10-day predictions QB50P1 (EO-79) is classified as:
1 40025U 14033R 25322.96104013 .00009096 00000-0 50665-3 0 9999 2 40025 98.0948 315.0615 0008041 214.9845 145.0857 15.13847217621174